This demonstration page uses our WeatherBlox Daily Observations layout. Learn more.

Left ArrowRight Arrow

39.01783, -85.05884

Hourly Observations for September 30, 2015

Temp ( °F °C ) Dew Point ( °F °C ) Humidity (%) Winds ( mph kmh ) Pressure ( in mb ) Visibility ( mi km ) Precip ( " mm )
12:52 am 00:52 Cloudy with Mist and Fog 66 18.9 64 17.8 93 93 N 8 13 29.90 1013 5 8 0.00 0.00
1:52 am 01:52 Cloudy with Mist and Fog 62 16.7 59 15 90 90 N 20 31 29.90 1013 5 8 0.00 0.00
2:17 am 02:17 Cloudy with Mist and Fog 63 17 57 14 83 83 NNE 18 30 29.94 1014 6 10 0.00 0.00
2:52 am 02:52 Cloudy 62 16.7 58 14.4 86 86 NNE 17 28 29.91 1013 7 11 0.00 0.00
3:09 am 03:09 Cloudy 63 17 57 14 83 83 N 16 26 29.94 1014 8 13 0.00 0.00
3:41 am 03:41 Cloudy 61 16 57 14 88 88 NNE 13 20 29.94 1014 9 14 0.00 0.00
3:52 am 03:52 Cloudy 61 16.1 57 13.9 87 87 N 13 20 29.91 1013 10 16 0.00 0.00
4:04 am 04:04 Cloudy with Light Rain 61 16 57 14 88 88 N 13 20 29.94 1014 10 16 0.00 0.00
4:52 am 04:52 Cloudy with Light Rain 60 15.6 57 13.9 90 90 N 12 19 29.92 1013 10 16 0.00 0.03
5:28 am 05:28 Cloudy 61 16 57 14 88 88 NNE 15 24 29.94 1014 10 16 0.00 0.03
5:52 am 05:52 Cloudy 60 15.6 56 13.3 86 86 NNE 12 19 29.92 1013 10 16 0.00 0.03
6:24 am 06:24 Cloudy with Light Rain 59 15 55 13 88 88 N 10 17 29.94 1014 9 14 0.00 0.00
6:52 am 06:52 Cloudy with Light Rain 59 15 56 13.3 90 90 N 12 19 29.94 1014 10 16 0.00 0.03
6:57 am 06:57 Cloudy with Light Rain 59 15 55 13 88 88 N 12 19 29.97 1015 10 16 0.00 0.03
7:52 am 07:52 Cloudy with Light Rain 58 14.4 55 12.8 90 90 N 14 22 29.96 1015 9 14 0.00 0.03
8:52 am 08:52 Cloudy 58 14.4 54 12.2 87 87 N 15 24 29.97 1015 10 16 0.00 0.03
9:52 am 09:52 Cloudy 59 15 54 12.2 83 83 NNE 14 22 29.98 1015 10 16 0.00 0.00
10:52 am 10:52 Cloudy 60 15.6 54 12.2 80 80 NNE 18 30 30.00 1016 9 14 0.00 0.00
11:52 am 11:52 Cloudy 62 16.7 54 12.2 75 75 NNE 14 22 30.01 1016 9 14 0.00 0.00
12:52 pm 12:52 Cloudy 62 16.7 55 12.8 78 78 N 14 22 30.01 1016 9 14 0.00 0.00
1:52 pm 13:52 Cloudy 64 17.8 55 12.8 73 73 NNE 16 26 30.01 1016 10 16 0.00 0.00
2:52 pm 14:52 Cloudy 65 18.3 54 12.2 68 68 NNE 15 24 30.01 1016 10 16 0.00 0.00
3:52 pm 15:52 Cloudy 65 18.3 54 12.2 68 68 NNE 13 20 30.00 1016 10 16 0.00 0.00
4:52 pm 16:52 Mostly Cloudy 67 19.4 54 12.2 63 63 NNE 14 22 29.99 1016 10 16 0.00 0.00
5:18 pm 17:18 Cloudy 66 19 54 12 64 64 NE 9 15 29.97 1015 10 16 0.00 0.00
5:52 pm 17:52 Cloudy 66 18.9 53 11.7 63 63 NE 10 17 30.00 1016 10 16 0.00 0.00
6:52 pm 18:52 Cloudy 65 18.3 52 11.1 63 63 NE 9 15 30.01 1016 10 16 0.00 0.00
7:52 pm 19:52 Mostly Cloudy 64 17.8 53 11.7 68 68 NE 8 13 30.01 1016 10 16 0.00 0.00
8:52 pm 20:52 Cloudy 64 17.8 52 11.1 65 65 NE 10 17 30.03 1017 10 16 0.00 0.00
9:52 pm 21:52 Mostly Cloudy 63 17.2 51 10.6 65 65 NNE 15 24 30.04 1017 10 16 0.00 0.00
10:52 pm 22:52 Cloudy 62 16.7 48 8.9 60 60 NE 17 28 30.04 1017 10 16 0.00 0.00
11:52 pm 23:52 Cloudy 60 15.6 48 8.9 65 65 NE 20 31 30.05 1018 10 16 0.00 0.00

Powered by AerisWeather